Theta_e
321 323 324 324 323 324 325 326 326 327 326 327 326 327 327 326 326 325 326 326 327 327 325 324 322 323 322 323 323 321 326 324 324 324 325 327 326 326 327 327 326 325 330 325 324 328 325 325 325 325 324 326 326 325 324 326 326 323 322 322 324 322 323 324 325 326 324 322 323 323 323 325 328 327 326 327 328 327 328 327 327 328 328 328 327
323 322 323 324 324 325 325 324 329 324 324 326 325 327 326 327 326 327 327 327 325 326 325 325 324 323 322 322 323 324 322 321 322 322 325 328 327 327 327 323 323 324 331 327 325 323 322 323 324 323 323 324 324 323 325 329 323 322 322 321 321 321 321 324 325 322 319 319 318 319 321 322 324 324 325 326 327 327 327 327 326 325 326 326 327
320 320 323 323 325 326 324 324 324 324 324 326 326 325 325 325 325 326 327 326 325 327 329 325 324 326 326 323 322 323 324 325 322 325 329 325 324 326 325 323 322 322 323 330 326 325 322 321 322 323 322 326 320 319 320 321 320 320 321 320 319 321 322 325 324 321 315 317 317 317 314 313 319 322 324 325 326 325 327 326 326 325 325 324 325
317 318 320 321 323 322 323 323 323 324 325 325 325 324 324 326 323 324 326 325 325 326 332 328 328 329 326 325 324 322 322 330 324 325 324 323 322 325 324 324 323 321 322 325 324 322 321 320 321 321 322 322 319 318 318 319 319 319 319 322 319 318 319 320 326 324 319 318 312 311 311 315 313 315 316 318 324 325 326 325 324 323 323 324 323
317 318 319 320 320 321 321 322 322 323 322 323 324 323 327 324 324 324 325 325 324 329 328 326 327 323 324 323 323 323 323 322 321 321 322 327 328 322 321 326 325 322 322 321 326 319 320 319 320 320 321 321 321 318 317 318 318 318 318 320 319 317 318 316 321 325 323 322 316 313 311 311 314 317 316 315 322 322 324 325 325 323 323 323 321
318 319 319 320 319 320 321 322 322 322 322 323 324 325 324 325 325 325 324 324 325 325 326 327 325 322 321 320 318 319 319 317 320 319 320 320 322 322 323 323 325 323 322 320 320 325 313 317 319 318 319 323 324 319 318 318 318 319 318 318 320 320 317 317 318 323 323 326 320 315 313 311 314 316 313 309 318 320 322 323 322 322 322 321 319
318 318 319 319 319 319 319 320 321 322 323 324 324 325 324 325 324 324 324 324 325 326 327 328 323 324 325 323 323 322 320 319 318 320 320 321 323 325 324 323 325 323 322 319 317 321 319 319 319 318 319 322 326 319 318 317 318 320 321 319 318 320 318 316 316 318 319 320 324 322 324 322 320 316 309 312 311 316 318 318 318 322 321 321 319
318 318 319 318 318 319 319 320 320 322 323 324 324 324 324 324 323 324 325 328 324 325 325 327 326 325 325 323 325 323 322 323 321 320 322 324 322 323 324 325 324 324 322 319 316 323 322 319 320 320 320 322 323 320 319 319 320 321 322 319 319 319 317 316 316 317 316 317 323 321 322 323 321 318 317 313 312 310 312 317 317 318 321 321 317
319 319 319 319 319 319 320 320 322 322 324 324 325 325 324 323 324 323 323 324 323 325 327 323 328 328 324 324 322 325 323 326 325 326 326 325 322 321 321 322 324 321 322 318 318 320 323 320 319 319 320 321 323 320 318 320 320 318 317 317 316 317 318 321 316 316 316 315 316 317 318 317 318 318 319 315 310 309 310 311 308 313 317 319 315
319 320 319 319 319 320 321 321 322 321 324 326 325 324 323 322 323 323 322 323 325 325 323 323 323 326 323 321 321 321 321 320 320 321 320 320 322 321 321 321 324 321 321 322 318 320 318 321 320 319 319 323 324 318 317 317 317 317 317 317 316 315 316 316 319 316 317 317 318 316 315 315 315 315 315 311 313 311 309 309 308 308 309 310 311
318 319 320 320 321 321 322 321 320 321 323 324 324 323 323 323 322 321 322 321 323 324 323 323 322 323 322 322 322 321 322 321 320 320 320 320 320 319 320 321 321 320 321 322 318 319 320 323 320 321 321 325 322 318 317 316 316 316 316 316 315 314 315 316 317 317 317 316 316 315 315 316 313 312 313 312 310 307 308 309 310 308 307 305 305
320 320 320 320 320 319 320 320 320 321 323 323 322 323 324 323 321 321 323 323 322 323 323 322 322 321 321 321 322 323 322 322 321 321 321 322 321 319 320 321 321 321 320 317 317 319 323 318 323 319 321 317 317 318 317 316 316 316 316 316 314 313 315 318 315 315 315 315 315 316 316 316 315 313 315 314 313 311 310 308 306 306 305 304 305
319 319 318 319 318 317 318 319 319 320 322 321 323 322 323 324 323 322 324 324 324 323 323 324 322 323 322 323 323 324 323 322 322 321 320 319 320 319 319 320 319 320 318 318 316 318 322 315 316 319 318 318 321 318 317 316 313 314 315 314 313 314 315 317 316 313 314 315 316 315 315 316 315 315 316 315 312 313 311 306 305 307 303 302 302
318 319 319 318 318 319 319 319 320 319 320 323 323 324 323 324 324 324 325 325 325 326 326 325 325 326 325 324 324 324 321 321 320 321 321 320 321 321 321 321 321 321 320 320 318 318 320 319 319 316 319 317 319 315 315 316 313 313 313 313 314 314 313 316 315 315 314 315 315 315 316 315 315 317 315 315 314 313 308 306 306 306 304 302 303
315 317 320 320 320 320 320 321 320 320 321 323 322 324 323 324 324 325 325 326 326 327 327 327 327 325 323 325 325 324 322 321 320 323 321 320 320 320 322 323 322 322 321 319 322 320 319 319 317 317 318 315 316 313 317 315 316 314 315 315 315 314 314 315 316 315 315 314 314 313 315 315 315 316 315 315 316 315 311 307 305 302 302 303 302
316 316 318 320 321 321 321 320 320 321 321 321 322 323 323 325 325 326 326 327 327 328 328 328 328 324 324 324 327 327 327 325 323 324 322 322 320 321 322 323 323 322 320 320 317 319 318 317 318 316 315 315 316 314 313 314 313 312 311 312 312 319 314 313 313 313 313 313 314 314 315 314 315 316 317 316 314 314 313 309 306 305 302 300 298
314 315 315 315 319 320 322 321 321 321 322 322 323 323 323 324 325 325 326 326 326 327 326 326 326 325 322 323 323 324 324 324 323 322 323 323 322 321 321 323 323 320 320 321 315 316 318 317 317 317 315 313 313 314 313 312 311 312 312 312 311 311 313 313 312 312 315 313 314 315 313 313 314 316 317 316 316 315 314 310 309 307 305 300 295
315 317 316 315 316 319 320 321 321 321 322 322 323 323 323 323 323 324 325 325 325 325 325 325 324 325 323 324 325 325 325 325 323 324 324 323 322 322 320 321 321 321 321 322 320 315 317 328 317 317 315 315 313 313 313 311 310 310 311 312 313 311 310 312 313 313 312 313 313 312 313 313 315 315 315 316 317 316 314 314 313 311 307 302 299
314 314 315 317 318 319 319 319 321 320 321 322 324 324 324 322 323 322 323 324 324 325 325 326 325 324 324 324 325 325 325 325 324 324 324 323 323 322 321 321 320 321 322 321 319 317 318 316 313 314 315 314 312 312 312 311 310 309 311 310 311 309 308 309 310 312 312 312 311 310 310 310 311 314 317 317 316 317 315 315 314 314 310 307 304
311 312 314 316 317 318 319 318 319 321 321 322 321 321 319 319 320 321 322 323 323 324 324 323 323 323 324 323 322 324 325 325 323 323 322 323 323 324 322 322 320 322 321 321 317 317 318 318 316 314 315 313 313 313 314 312 310 309 309 309 309 308 307 308 309 309 311 310 309 310 310 308 310 314 315 315 315 315 316 316 315 314 313 310 307
311 312 312 313 314 316 317 318 321 321 322 322 321 321 319 320 321 323 323 323 323 322 323 323 323 323 323 322 323 323 323 324 323 323 322 322 322 323 323 323 323 321 322 320 320 319 318 319 318 317 315 315 314 313 311 311 310 309 309 308 307 307 306 306 310 308 308 308 308 309 308 308 308 309 311 314 315 315 314 315 315 313 313 310 307
311 311 311 312 312 313 314 314 317 320 321 321 322 320 320 319 320 321 322 323 322 322 322 322 321 322 321 322 322 322 322 322 322 322 323 323 323 323 324 324 323 323 323 322 322 321 319 319 318 318 317 316 314 313 310 309 311 309 307 309 307 306 305 305 305 306 306 307 306 306 307 306 308 307 307 309 317 315 315 314 313 315 313 310 309
311 312 312 312 312 312 313 314 313 313 317 321 319 319 320 319 320 321 322 322 323 323 323 322 322 322 322 322 322 322 322 321 321 321 321 322 323 323 324 323 322 322 323 322 322 321 321 319 318 318 318 317 315 313 311 308 307 307 306 306 308 304 304 304 304 305 306 305 306 305 304 304 308 307 307 306 311 313 314 316 315 314 313 310 309
311 312 312 312 312 312 312 312 313 312 312 316 319 320 320 319 320 320 321 321 322 323 323 322 321 322 322 322 322 322 321 320 319 320 320 321 322 322 322 322 322 322 322 323 323 322 321 318 318 318 318 316 314 312 310 309 307 306 306 307 305 303 301 302 304 305 305 305 304 304 305 304 305 306 305 306 306 308 313 315 314 312 312 311 309
311 311 311 311 311 311 311 311 312 312 311 312 314 318 318 318 319 320 320 321 322 322 322 322 321 321 321 320 320 320 320 321 321 320 320 321 321 322 322 323 322 321 322 322 322 322 321 320 318 317 317 314 313 311 310 308 307 305 303 303 302 302 301 302 304 303 314 303 305 304 304 303 303 303 303 303 304 306 312 315 313 313 312 311 309
310 310 310 310 310 310 310 310 311 311 311 311 311 313 317 317 318 320 320 321 321 322 321 320 320 320 320 319 319 319 319 320 320 321 321 321 322 322 323 322 322 321 321 321 321 321 322 320 319 317 317 315 312 310 309 308 306 304 302 301 301 301 301 302 303 304 304 303 304 302 302 302 302 301 301 302 304 305 308 313 311 313 311 309 308
309 309 309 309 308 308 309 310 310 310 310 311 310 310 311 316 318 320 321 321 320 319 320 319 319 319 319 319 319 319 319 319 320 320 321 322 322 322 322 323 322 322 321 321 321 321 321 321 320 319 317 315 313 311 309 307 304 303 302 302 301 301 304 304 303 303 304 303 302 301 300 300 300 299 300 301 303 303 305 305 309 311 310 309 307
307 307 307 307 307 308 308 308 308 309 310 310 310 310 310 312 317 318 318 318 318 317 317 317 317 317 318 319 319 319 320 320 320 320 320 320 320 321 321 321 322 321 320 320 320 321 321 321 320 318 317 316 314 312 309 307 304 302 302 301 301 302 303 302 303 303 302 302 301 300 299 299 298 298 298 299 301 300 300 301 300 309 311 309 307
305 305 306 306 307 306 306 306 307 308 308 308 309 309 309 310 311 315 318 317 316 315 316 316 315 315 317 318 318 319 319 320 320 319 319 320 320 320 320 320 320 320 321 321 320 320 320 319 320 319 318 316 314 312 310 306 304 302 301 301 302 304 303 302 302 301 300 301 300 299 298 299 305 309 309 308 308 307 300 300 299 304 310 309 306
303 304 305 305 306 306 305 305 305 306 307 307 307 308 308 308 309 309 311 315 316 313 313 314 315 315 315 317 317 316 316 315 316 318 319 319 320 320 319 319 320 320 321 322 321 321 320 320 319 319 318 315 314 312 313 312 309 304 302 303 304 302 303 302 302 300 299 299 299 300 305 313 310 308 306 303 302 303 305 301 298 301 304 304 303
303 304 305 306 306 305 304 304 304 304 305 306 305 306 307 308 308 308 308 310 310 308 308 308 308 309 314 315 312 310 309 309 311 314 317 319 319 319 318 318 318 319 319 320 321 320 319 319 319 318 316 315 313 312 310 302 301 306 305 303 303 302 302 302 302 299 298 300 299 300 301 307 307 306 300 300 299 299 299 300 302 305 305 301 300
301 303 304 305 305 304 303 302 303 304 305 305 305 305 305 306 306 307 307 307 306 306 305 306 306 307 308 312 312 308 307 307 308 309 313 317 317 317 317 317 317 317 317 317 316 318 319 319 319 319 317 316 314 313 301 299 300 301 307 305 303 303 303 302 301 299 299 300 299 299 299 299 295 295 296 296 300 300 299 299 299 299 299 299 301
299 301 303 303 304 303 302 302 303 303 304 305 305 305 304 305 306 306 306 305 305 305 304 305 306 305 306 307 307 306 306 307 307 308 310 314 316 315 315 316 317 317 316 316 317 316 315 316 317 317 316 316 313 307 298 299 298 299 301 306 302 302 302 301 301 299 298 298 299 300 299 299 299 308 303 294 296 301 305 304 303 303 303 299 294
298 299 300 301 303 303 302 302 302 303 304 304 305 305 305 305 306 306 304 304 304 304 303 303 305 305 305 306 306 305 305 305 306 306 308 310 312 313 313 314 315 315 314 314 314 315 315 315 316 316 315 315 313 308 299 297 298 298 298 301 303 301 301 300 301 300 299 297 298 299 299 300 298 302 295 294 295 297 296 294 293 292 293 299 301
297 297 298 299 301 301 301 301 302 303 302 303 303 304 304 304 304 305 304 303 303 302 303 303 304 304 304 304 305 304 304 305 305 305 305 306 309 310 311 313 313 313 313 313 313 313 315 316 316 316 314 314 315 305 300 297 296 297 297 301 303 303 301 299 300 301 300 299 299 301 301 301 298 298 297 297 296 296 295 294 292 291 291 291 291
296 297 297 298 300 300 300 300 303 301 301 301 301 303 304 302 303 304 303 302 302 301 301 302 303 304 304 304 303 303 303 304 304 303 303 304 306 308 309 311 313 313 311 311 312 312 314 315 316 316 315 313 313 301 297 296 295 295 297 305 303 302 301 299 298 301 301 301 301 302 301 298 298 298 305 301 301 298 294 292 291 289 289 289 291
297 298 298 299 300 300 300 300 299 300 300 300 300 302 303 301 301 302 302 301 301 300 301 301 303 303 304 303 303 303 303 303 303 302 302 303 304 306 307 309 311 312 310 309 310 311 313 315 316 316 315 313 311 300 297 297 296 294 297 302 301 302 301 299 298 300 301 302 301 300 299 297 297 297 300 296 298 302 294 292 290 289 289 289 290
298 299 299 299 300 301 301 300 299 299 299 299 300 301 302 300 300 300 299 299 300 300 301 302 302 302 303 303 303 303 303 303 302 301 301 302 303 304 305 306 307 309 310 309 310 312 313 313 314 316 316 314 312 304 296 297 296 295 298 300 300 301 300 299 298 298 299 300 302 310 305 297 296 296 295 295 296 299 293 292 291 290 288 287 289
299 298 298 298 299 301 301 300 298 298 298 298 299 299 301 299 299 298 298 298 299 300 301 301 301 302 302 302 302 303 302 302 301 301 301 301 302 302 303 304 305 308 309 309 309 310 312 312 311 314 319 318 315 309 296 296 296 295 297 300 300 300 300 299 298 297 296 298 302 312 309 303 298 298 292 295 296 299 294 293 292 290 289 286 287
300 300 299 299 300 300 298 297 297 297 298 299 298 298 300 299 298 297 298 298 299 300 301 301 301 301 302 302 302 302 302 302 301 301 301 301 301 301 301 302 304 307 309 309 308 308 310 311 310 310 313 315 314 311 304 295 297 296 295 300 300 299 300 300 297 298 297 296 298 303 306 297 296 293 292 294 295 296 295 293 293 291 289 288 288
298 299 301 298 298 298 297 297 297 298 298 299 298 298 298 298 297 296 297 298 300 301 301 300 300 300 300 301 300 300 300 300 301 300 300 301 300 300 300 301 303 306 307 308 308 308 308 309 309 309 309 311 313 313 308 295 295 296 295 297 298 300 301 301 298 299 297 298 296 299 299 298 293 292 292 293 294 295 297 295 294 292 292 293 293
298 300 300 297 298 297 297 297 298 298 299 298 298 298 297 297 297 297 298 300 301 300 300 300 299 298 299 299 299 299 300 300 301 301 299 299 300 300 300 300 302 303 302 303 303 303 304 306 308 308 310 312 314 315 311 300 294 295 294 294 298 300 302 302 299 298 297 297 296 295 296 296 292 292 292 292 291 292 295 299 295 293 293 292 294
295 296 298 298 297 296 296 296 297 298 298 298 297 297 297 298 297 298 300 301 301 300 300 299 298 297 298 299 299 298 299 300 300 300 299 298 299 300 299 300 300 300 299 299 300 300 301 303 305 307 308 310 312 313 307 307 298 294 294 294 294 297 295 304 300 298 298 298 297 295 297 297 291 291 291 292 293 293 298 297 294 292 292 292 297
295 296 296 297 296 296 296 296 297 297 297 298 297 297 297 296 296 298 299 299 299 299 299 298 297 297 297 298 298 299 299 299 299 299 299 299 299 299 299 299 298 298 297 297 297 298 299 300 302 303 305 307 309 311 308 303 302 295 293 294 293 293 292 297 303 300 298 298 297 294 295 293 291 291 291 292 293 295 294 291 293 293 292 294 296
294 296 297 296 295 295 295 296 296 296 298 298 297 296 296 295 295 297 296 296 297 297 297 296 296 296 296 297 297 298 298 298 298 298 298 299 298 298 297 297 296 296 296 295 296 296 297 298 299 300 301 302 305 309 311 306 298 298 294 293 293 293 293 292 298 300 300 300 297 294 293 291 290 291 291 292 293 293 291 291 292 293 300 293 294
295 295 296 295 295 295 295 295 296 296 297 298 297 296 294 294 295 295 295 295 296 296 296 295 295 295 296 296 296 296 296 296 297 297 298 298 298 297 296 296 295 295 295 295 295 296 296 296 297 298 298 300 302 304 308 309 304 302 298 293 293 293 296 295 297 295 293 294 294 293 292 290 291 291 293 293 291 292 291 292 292 297 294 290 290
295 295 295 295 295 295 295 296 296 296 296 296 295 295 294 295 294 294 295 295 296 295 296 295 294 294 294 294 293 294 294 295 295 296 297 297 297 295 295 295 295 295 295 295 295 295 295 295 295 296 297 298 299 301 303 305 304 301 300 299 296 296 297 296 298 298 298 295 295 294 291 290 290 292 293 294 295 292 291 292 292 292 290 289 292
294 295 295 295 295 294 295 295 295 295 295 295 294 294 294 294 294 294 294 295 295 295 294 293 293 293 293 293 292 294 294 293 294 294 294 294 294 295 294 294 294 295 294 294 294 294 294 294 294 294 295 296 298 300 302 302 303 302 302 300 299 299 299 299 299 299 295 296 293 292 291 291 291 291 291 290 289 289 288 288 288 288 288 290 296
294 294 295 295 295 296 295 295 294 294 294 293 293 293 293 293 293 294 294 294 294 294 294 293 292 292 291 292 292 291 292 292 292 293 293 293 293 293 293 294 295 297 295 293 293 293 295 294 294 294 294 296 298 299 301 297 296 296 301 302 299 299 300 300 301 296 298 294 291 290 288 288 288 289 289 290 288 287 288 287 288 287 287 287 288
294 295 295 295 297 295 295 295 293 293 293 292 292 292 293 293 293 294 293 293 294 293 292 292 292 291 290 291 291 290 291 292 292 291 292 293 293 294 293 293 293 296 293 292 292 292 293 293 293 295 296 295 296 299 296 295 294 294 295 297 298 297 296 300 297 293 295 293 291 289 289 289 288 288 289 289 289 288 289 287 287 289 287 286 286
294 295 294 295 295 298 295 293 292 293 292 292 291 291 292 293 293 293 293 292 292 292 291 291 291 290 290 290 290 290 291 291 291 291 291 291 292 293 293 292 293 294 292 292 292 292 292 292 294 293 295 295 295 295 295 295 294 294 295 294 294 295 295 295 293 295 296 295 291 289 289 289 290 289 289 290 290 289 289 289 288 287 287 287 287
Wind_Speed
0 0 0 1 2 1 1 0 0 1 3 3 3 3 3 1 2 3 4 3 3 4 3 2 2 5 3 3 2 2 0 2 3 2 2 1 2 3 3 4 4 4 1 3 5 4 4 4 5 5 5 5 5 5 4 5 5 4 5 3 5 6 6 4 3 6 8 5 4 5 6 6 6 6 5 5 5 3 3 6 6 4 5 5 5
1 2 1 1 0 0 1 0 1 1 1 1 3 3 3 3 2 4 4 4 3 3 3 2 1 2 3 4 1 1 1 2 2 1 1 1 2 2 3 3 3 4 3 2 3 3 4 5 4 4 5 5 3 4 5 5 6 6 5 6 3 3 4 3 1 2 2 4 5 2 5 5 6 6 6 6 4 5 4 5 5 5 4 5 4
0 2 2 1 1 2 1 1 1 1 1 2 3 2 3 3 3 4 5 4 3 2 1 3 2 2 2 2 3 1 0 1 2 1 0 1 3 2 3 3 3 4 3 1 2 3 3 3 4 3 3 4 5 6 5 6 4 5 5 4 6 4 3 3 3 0 3 2 2 4 0 2 3 4 4 4 4 3 3 5 4 6 5 4 4
2 2 2 1 0 0 0 0 2 1 1 2 2 2 2 3 3 4 5 4 4 3 3 3 2 1 0 3 1 2 0 1 1 1 2 2 2 3 2 2 2 3 3 3 3 2 2 3 3 4 3 3 2 4 4 4 4 5 6 6 3 4 5 4 4 4 3 6 2 1 1 1 3 2 1 2 2 3 4 4 3 5 4 5 4
4 2 2 2 2 2 2 2 1 2 2 3 3 3 2 3 4 4 4 4 3 3 3 1 2 2 4 3 3 2 1 3 3 2 2 1 1 2 2 3 1 3 3 3 1 3 3 3 2 2 3 2 2 2 3 2 2 2 4 5 5 2 5 2 3 3 3 0 4 3 2 1 2 3 2 2 3 3 3 4 4 5 6 5 5
4 5 4 3 3 2 2 1 2 2 3 4 3 3 3 4 4 4 3 3 3 1 1 1 3 2 3 3 3 2 3 4 2 3 3 1 2 2 3 2 1 1 2 3 4 3 4 3 2 3 3 3 3 1 0 2 3 4 3 3 4 3 1 5 4 4 2 3 2 1 4 4 5 5 2 0 1 2 1 2 3 4 5 6 6
2 1 2 3 3 2 3 2 2 2 3 4 3 3 2 3 3 2 2 2 2 1 0 2 2 2 0 0 0 1 1 4 3 3 4 4 1 1 2 2 1 1 1 1 4 3 3 3 3 2 2 4 2 2 3 2 1 1 1 3 2 2 3 4 4 4 6 1 3 2 1 1 6 6 2 3 2 1 2 2 2 3 6 7 6
4 4 4 3 3 3 4 3 2 2 3 3 3 2 1 3 2 2 1 1 2 1 0 1 1 1 2 3 1 2 3 5 4 4 4 2 2 2 1 1 0 0 0 1 3 3 3 3 3 3 3 3 3 3 3 1 1 1 1 0 1 2 2 2 3 3 2 3 2 3 3 4 4 2 4 5 4 5 0 2 4 3 3 5 7
4 5 5 5 4 3 3 3 2 2 3 0 0 2 1 2 1 1 2 2 2 3 1 1 1 1 2 2 3 3 3 5 5 3 4 2 2 1 1 2 1 1 1 2 2 3 2 2 2 3 3 2 3 3 2 3 3 3 2 3 3 3 3 1 1 3 3 2 2 2 3 3 2 2 3 2 3 4 2 2 2 4 5 4 7
2 2 3 3 3 3 2 1 1 2 2 2 2 2 2 3 3 3 1 2 2 1 0 1 0 0 0 1 3 5 3 3 1 3 4 2 2 3 3 2 2 2 1 1 2 2 3 2 2 2 2 2 1 2 2 3 3 3 1 1 2 3 3 2 1 3 2 2 1 0 1 1 2 1 1 2 2 1 5 5 5 7 6 2 4
2 2 2 2 1 1 0 1 2 3 3 2 3 3 2 3 2 3 4 3 1 1 1 3 3 1 2 2 3 4 5 3 3 4 4 4 4 4 3 4 2 4 1 1 2 2 2 2 1 1 1 0 1 2 2 3 3 3 1 3 3 3 3 3 3 2 2 3 3 1 3 4 4 3 4 3 3 2 4 3 3 3 7 7 3
2 1 1 0 0 0 1 1 2 2 3 3 3 3 3 3 3 3 5 4 4 3 2 4 4 4 3 4 4 4 4 4 4 5 6 5 5 5 4 2 3 1 2 2 2 1 1 2 1 0 0 0 0 0 1 2 2 3 3 3 2 3 2 2 1 3 2 2 2 1 1 2 1 3 3 4 6 5 7 6 5 6 5 4 5
2 1 0 0 1 2 2 3 2 2 3 3 4 3 3 3 4 4 5 5 5 4 5 5 5 5 4 4 4 4 3 3 2 4 4 4 3 4 3 5 4 1 3 3 3 1 1 2 1 0 0 1 1 1 1 2 3 3 2 2 3 2 2 1 1 3 3 2 0 1 2 0 1 1 2 4 2 5 7 6 3 4 5 5 3
2 0 0 1 2 2 3 3 3 3 3 4 4 3 3 4 4 4 6 5 5 5 5 5 5 5 4 10 10 8 4 1 1 1 2 2 2 3 5 6 5 5 4 5 5 3 3 3 2 1 1 1 1 2 1 1 2 3 2 2 2 1 1 0 1 1 1 3 1 1 2 1 1 0 2 5 5 7 6 8 6 4 7 6 4
2 0 1 1 2 3 3 3 3 3 3 4 4 4 4 4 4 5 6 6 5 6 6 6 7 6 5 4 6 5 4 5 4 3 2 2 2 2 3 4 6 5 5 4 4 4 4 4 3 3 3 3 2 0 0 1 1 1 1 0 0 0 1 2 2 2 3 3 2 1 2 2 1 1 4 5 5 7 8 7 7 8 5 6 4
3 3 1 0 2 3 3 3 3 3 3 3 4 4 4 4 4 5 6 7 6 7 7 7 8 4 7 1 5 6 6 6 6 3 2 2 2 2 4 4 4 3 2 1 4 5 4 4 3 3 3 2 2 2 3 2 1 1 1 1 1 0 0 2 0 1 2 1 1 1 1 2 1 2 3 5 4 4 5 6 6 9 10 6 3
2 2 1 0 1 2 3 3 3 3 3 4 4 4 4 4 4 6 6 5 6 7 7 7 7 4 7 7 4 9 9 9 5 6 8 5 4 4 3 3 1 7 4 5 6 4 4 4 4 3 3 3 3 4 4 4 3 2 1 1 1 0 1 1 1 1 0 1 2 1 2 2 1 1 0 3 4 3 3 4 5 8 8 9 6
1 1 1 1 1 2 2 2 2 2 2 3 4 4 3 3 4 5 6 7 4 8 10 8 8 4 4 3 7 9 7 8 5 7 6 5 5 5 3 2 3 6 7 8 7 6 4 4 3 3 4 3 4 4 4 4 4 2 2 1 0 1 2 1 0 1 2 1 1 0 0 2 1 1 1 1 4 4 5 5 4 2 5 10 7
5 4 4 3 2 0 0 1 2 2 2 3 4 5 5 4 5 4 6 6 6 4 4 6 5 3 2 5 7 7 7 6 4 5 5 4 5 5 3 1 5 6 6 5 7 6 4 3 3 3 3 4 4 4 4 4 4 3 1 1 2 3 3 3 1 1 2 2 2 1 1 1 0 2 1 0 2 4 5 5 3 4 5 4 7
7 6 5 4 3 2 1 3 3 1 2 3 3 4 4 5 5 6 5 4 4 5 5 5 4 4 4 2 4 5 5 4 3 3 5 6 5 4 3 3 5 5 5 4 5 4 4 4 3 3 3 4 4 5 5 4 4 4 3 1 1 3 2 1 2 1 0 1 2 2 0 1 0 3 2 2 2 2 3 5 5 5 5 6 6
8 8 9 9 7 6 6 2 3 3 2 3 3 4 5 5 6 6 7 7 7 6 6 6 6 7 6 6 6 5 6 4 5 4 5 6 5 5 5 5 3 4 5 5 5 5 5 5 5 4 4 4 4 4 4 4 4 4 4 3 1 2 1 0 1 3 1 1 3 1 0 0 1 3 3 3 3 3 2 2 4 5 5 4 7
5 5 5 5 6 8 10 7 4 3 1 2 3 3 4 4 4 4 5 5 5 6 5 5 5 5 6 7 7 5 5 5 5 5 6 5 4 4 5 4 5 6 7 7 7 7 6 5 5 5 5 5 4 5 5 4 4 4 4 3 3 2 1 0 1 0 3 0 2 3 1 1 1 2 1 3 5 4 3 4 3 5 5 6 5
5 6 6 6 7 7 7 8 8 6 5 5 4 3 4 5 6 6 7 6 5 5 5 5 6 7 8 7 6 6 5 5 6 6 7 6 5 4 4 5 6 6 5 7 8 6 6 5 4 5 5 5 6 6 5 5 4 4 4 3 3 3 2 1 0 1 2 2 3 2 1 1 2 4 2 1 1 3 3 5 5 4 5 6 4
6 7 7 7 7 7 8 7 6 6 6 5 5 3 4 4 5 5 6 6 6 5 5 5 6 8 7 7 8 7 7 6 5 5 6 6 5 5 4 5 6 4 5 6 6 6 5 4 4 5 6 5 6 7 6 6 6 5 4 4 4 3 3 2 1 1 0 3 4 3 1 2 3 5 2 3 2 1 4 3 4 3 4 6 5
7 8 7 8 9 9 8 7 8 7 6 6 5 3 3 4 4 5 4 5 5 6 6 6 6 7 7 7 7 7 8 8 8 7 7 6 5 5 4 5 5 6 6 6 6 5 4 4 5 6 6 5 7 8 7 6 5 5 5 4 4 4 4 3 3 3 2 3 3 4 2 3 4 5 1 2 2 1 4 5 5 4 5 5 4
6 6 7 7 6 7 9 8 8 8 7 6 7 6 4 4 4 4 5 6 6 6 6 6 6 6 7 8 7 6 7 7 7 7 7 6 6 5 6 5 4 5 5 5 6 5 5 6 5 5 5 5 7 7 8 8 6 5 4 4 4 4 3 3 2 1 4 4 4 4 3 3 4 4 1 0 0 1 2 5 5 5 3 3 5
5 4 4 6 9 9 8 8 8 7 8 8 7 8 6 3 4 4 4 4 5 5 5 6 6 5 6 7 7 7 6 6 6 7 6 6 6 5 5 6 5 4 5 7 7 5 4 4 5 5 5 5 7 7 7 7 6 5 5 4 4 3 1 2 3 4 4 4 4 4 3 3 4 3 2 1 1 1 3 3 4 5 4 4 5
4 5 6 7 7 7 8 8 9 9 10 10 10 9 7 6 6 6 5 5 6 4 4 5 5 5 5 6 6 6 6 6 6 6 7 6 6 5 5 5 5 5 6 6 7 6 4 3 5 6 6 5 5 7 6 7 7 7 6 5 4 4 3 3 3 4 3 4 4 3 3 4 4 3 3 1 2 3 2 3 0 4 6 6 6
7 6 7 7 7 6 8 9 9 10 11 10 10 10 10 10 8 7 6 7 8 6 6 4 4 5 5 5 6 6 6 7 7 7 8 8 8 7 5 5 5 5 5 5 2 5 7 7 6 7 6 4 4 6 7 7 7 6 6 6 5 4 4 4 4 3 3 4 4 3 3 3 3 4 5 4 4 3 3 4 1 2 6 7 5
9 8 7 7 7 8 8 9 9 10 9 9 8 9 8 8 8 8 9 8 7 8 8 8 7 6 5 5 6 6 7 7 8 8 7 7 8 8 7 6 5 6 6 5 4 4 6 7 7 9 6 6 4 4 8 14 12 9 7 6 5 4 4 4 5 4 2 2 3 4 3 7 7 7 6 8 8 8 7 4 3 4 6 6 6
9 9 8 7 8 9 9 9 8 7 7 6 5 5 7 8 8 8 8 8 7 9 9 9 9 7 6 5 6 6 7 8 7 8 7 7 7 7 8 8 7 6 5 4 2 4 7 5 5 4 5 8 8 6 13 15 15 15 9 7 7 5 4 5 5 6 5 4 3 3 4 5 5 6 4 7 9 10 11 11 10 8 6 7 7
8 8 8 8 8 7 8 8 7 8 7 7 7 6 7 7 6 7 7 7 8 8 9 8 8 8 8 8 8 8 10 9 9 9 8 7 6 7 7 8 7 7 7 4 4 3 5 6 3 3 2 1 4 10 12 15 15 15 12 8 7 6 5 6 6 6 5 5 5 4 3 3 3 4 4 4 6 9 11 11 11 11 10 8 4
7 8 7 6 5 5 6 7 7 8 9 9 8 9 9 8 9 8 8 10 10 10 9 9 9 9 9 8 9 10 10 12 11 10 10 9 7 7 7 7 9 7 6 7 6 4 2 4 4 1 1 1 2 3 9 14 15 15 14 10 6 7 7 6 6 6 6 6 5 5 4 3 3 7 4 4 5 5 8 10 10 10 9 9 9
7 7 7 6 6 6 5 5 6 7 8 8 9 9 8 8 9 7 8 8 9 10 11 11 5 7 8 8 8 9 11 11 11 12 11 12 10 9 7 6 6 7 7 7 6 6 3 1 2 3 3 1 1 1 1 10 14 15 14 11 7 6 6 7 7 7 6 7 7 6 6 4 3 3 4 4 4 4 4 5 5 5 4 5 7
7 8 7 5 5 5 6 7 6 5 6 8 10 8 7 8 8 9 9 9 8 8 9 11 12 9 7 7 7 9 10 11 12 12 12 12 12 11 10 8 7 6 7 7 7 6 5 4 3 4 3 3 3 2 6 7 10 14 14 11 6 6 6 6 6 7 7 7 7 7 6 6 5 4 4 5 5 4 5 5 5 4 4 3 3
5 6 6 5 4 4 4 5 5 8 8 9 8 7 7 8 8 8 8 9 9 11 11 11 11 10 11 11 10 9 11 11 12 12 13 13 12 12 11 10 7 7 5 5 6 4 5 5 5 5 4 3 1 5 4 3 7 10 12 6 6 6 6 5 4 5 6 6 6 7 6 5 5 6 7 10 7 6 6 6 6 4 4 3 3
5 5 6 5 5 5 5 5 6 7 8 7 8 9 7 7 9 9 9 8 8 10 10 9 10 11 11 10 10 9 11 11 11 12 13 13 12 12 12 10 9 8 7 6 7 6 5 6 5 4 5 4 2 4 10 11 9 5 8 3 5 6 5 5 5 5 6 6 6 6 6 6 5 5 7 10 11 9 6 6 6 4 3 3 2
5 6 7 7 7 5 5 7 7 8 8 6 7 7 6 7 8 8 9 9 10 10 9 10 10 10 10 11 11 10 10 11 11 11 11 12 12 11 11 11 9 8 8 7 6 7 6 5 6 7 4 4 4 6 10 11 11 10 7 4 4 6 6 5 4 4 5 6 7 12 9 7 6 5 8 10 12 9 6 6 6 6 4 3 0
5 5 6 6 6 5 5 7 7 7 7 5 7 6 6 6 7 7 7 8 8 8 8 8 9 9 10 10 9 10 10 10 11 11 10 11 11 10 10 11 11 8 7 6 6 6 7 6 4 6 9 7 5 5 9 10 12 12 9 5 4 5 6 5 6 5 4 6 6 9 11 9 8 8 11 11 12 8 7 6 6 6 5 4 4
5 5 4 5 6 7 8 7 6 6 6 8 6 6 6 7 7 6 8 8 8 6 6 7 9 9 9 11 10 10 11 10 10 11 11 10 8 10 12 12 13 11 9 8 7 8 8 8 6 5 7 8 7 6 4 9 12 13 13 8 5 5 6 6 6 7 6 3 4 6 8 12 12 12 11 11 11 11 7 5 5 6 5 5 4
5 5 5 5 5 4 4 4 5 7 7 6 5 6 9 8 8 9 9 8 6 6 8 8 9 10 11 11 11 10 11 10 9 10 10 9 9 9 10 11 12 12 13 12 12 11 10 9 8 6 4 6 10 8 5 8 11 14 12 9 5 7 6 7 7 6 7 7 5 5 6 9 12 12 11 11 10 10 9 6 6 6 6 4 8
4 6 5 4 4 5 6 8 7 8 7 6 7 9 9 10 11 11 8 7 8 8 8 10 11 11 11 11 11 12 11 9 10 11 12 11 10 9 8 9 9 11 12 12 12 11 11 11 9 7 7 5 7 8 6 6 10 11 9 10 6 6 5 7 7 6 6 6 7 6 6 9 13 13 12 11 11 10 11 6 7 9 8 12 8
5 6 4 4 5 5 7 7 7 6 7 7 8 10 10 10 12 10 8 8 8 8 8 8 9 10 10 10 11 12 11 10 10 11 11 11 10 10 10 9 10 11 11 11 12 11 11 11 11 10 7 8 9 7 7 6 8 10 12 11 10 3 5 3 6 8 8 8 6 6 6 11 13 13 12 12 11 12 9 7 11 8 10 11 8
4 4 4 5 5 5 7 7 7 7 8 8 9 10 10 11 10 8 8 8 8 8 8 9 9 10 10 11 11 11 11 10 11 11 11 11 11 11 9 9 9 9 10 11 11 11 11 11 11 11 11 10 9 8 7 8 7 10 11 12 11 9 2 4 3 6 6 7 7 6 7 12 13 13 12 12 11 10 7 8 10 12 11 9 5
5 5 4 5 5 6 7 7 7 8 8 9 9 10 11 11 8 7 9 8 9 8 9 9 10 10 11 10 11 11 11 11 11 10 11 11 11 12 11 11 10 10 10 10 10 10 10 10 10 11 11 11 10 9 8 7 8 8 9 11 12 10 9 3 3 1 2 6 8 10 11 13 13 13 12 11 9 9 11 10 10 12 10 6 6
6 5 5 4 5 7 6 6 8 8 9 9 10 10 10 6 7 8 8 8 8 9 9 10 9 10 11 12 12 12 13 12 12 11 10 9 10 10 10 10 10 10 9 9 11 11 11 11 10 11 11 11 11 9 8 8 5 5 5 9 10 11 10 7 3 2 3 4 9 10 11 11 10 9 8 5 5 5 9 11 12 10 6 7 6
5 3 4 6 6 7 6 6 9 8 9 8 8 8 7 6 8 8 8 7 8 9 8 8 10 10 11 12 12 11 12 11 12 11 10 10 10 10 10 9 9 10 11 11 11 11 11 11 11 11 11 11 10 10 9 8 5 5 3 3 6 7 7 6 4 4 4 4 5 6 6 6 4 8 7 6 6 6 5 5 5 5 7 6 7
4 4 5 6 7 5 5 7 9 8 7 8 8 7 7 7 8 8 8 8 8 9 9 8 10 9 10 11 10 15 14 10 10 11 11 11 10 10 9 9 10 10 11 11 10 10 10 10 11 11 11 10 11 11 12 12 11 7 5 3 4 5 7 8 7 6 3 2 3 6 8 5 5 5 5 4 3 3 3 4 4 5 5 4 4
5 4 5 7 5 5 5 9 8 6 6 7 7 7 7 8 8 8 8 9 9 8 8 8 9 9 10 10 9 9 9 9 10 10 10 8 8 10 9 8 6 7 8 7 8 9 9 9 8 9 10 10 11 12 14 15 13 12 8 4 5 7 7 7 7 10 6 4 5 5 5 5 4 6 5 5 4 4 2 2 4 4 4 4 5
3 4 6 6 5 5 8 9 6 5 6 7 7 7 7 7 7 7 8 9 9 9 8 8 8 9 10 10 9 9 9 9 9 10 10 12 12 9 7 7 9 13 15 13 7 7 7 6 9 8 4 5 8 10 17 19 18 15 9 11 9 7 8 6 10 13 8 6 4 6 6 8 7 6 6 6 6 6 6 5 4 4 3 3 4
5 7 6 6 5 7 9 8 5 5 6 6 6 7 7 8 7 7 8 8 9 8 8 7 8 9 10 9 8 8 8 8 9 9 9 9 12 14 12 10 12 13 14 16 15 16 17 13 7 10 12 12 12 16 20 21 18 16 10 7 6 3 8 10 14 9 4 6 6 7 6 5 7 7 7 7 7 7 7 6 6 6 4 4 4
Wind_Direction
295 148 157 221 269 299 184 122 57 10 344 350 350 336 329 320 359 308 289 316 310 299 303 308 327 323 339 343 315 324 279 75 42 353 40 8 2 359 355 348 347 336 18 15 30 24 23 7 358 359 4 22 29 12 2 13 12 16 355 3 16 23 50 44 59 98 105 66 31 41 36 33 41 43 39 33 39 17 18 40 40 34 76 89 94
21 348 333 359 350 81 118 40 84 138 296 334 318 302 321 336 290 274 293 293 276 248 254 321 225 230 244 254 246 268 79 64 54 6 1 358 11 333 325 5 16 14 13 26 30 43 32 13 359 352 358 9 33 25 26 25 19 17 10 360 9 33 37 66 289 81 32 138 128 58 44 35 35 23 23 28 38 21 35 83 107 93 78 87 93
342 301 315 327 351 77 100 166 255 226 223 230 249 297 307 306 284 266 270 266 267 247 248 264 261 303 247 210 155 121 75 214 160 255 357 6 328 333 337 360 21 41 9 339 36 2 43 20 350 342 15 1 39 24 24 26 15 21 17 19 340 356 17 10 30 109 159 111 92 97 99 39 21 15 10 13 11 75 58 53 76 99 91 76 75
212 246 254 280 235 347 31 162 214 259 273 274 279 271 293 292 265 250 260 272 276 297 285 267 229 300 261 113 87 107 152 38 22 348 16 9 344 325 328 18 2 47 39 44 20 342 37 22 349 349 6 38 24 64 32 23 21 19 16 16 20 11 1 334 8 14 105 127 144 167 184 107 117 54 14 333 355 40 74 93 92 90 88 78 66
195 216 213 229 229 229 222 230 209 202 245 260 271 278 276 276 272 262 265 275 306 311 302 9 43 15 9 7 32 28 13 13 23 346 330 321 306 330 314 355 359 38 44 53 46 17 11 27 32 9 23 74 59 75 78 61 23 11 25 33 28 24 350 337 334 16 48 113 145 101 62 33 210 148 129 345 356 21 44 72 94 97 94 89 84
192 192 194 196 213 275 273 267 201 231 241 248 236 249 263 282 278 267 279 299 285 276 261 78 66 65 40 33 3 10 345 339 313 261 278 270 224 243 297 357 344 8 69 52 28 25 14 20 29 47 36 27 71 41 99 69 46 45 11 42 20 10 77 0 350 337 5 12 68 157 171 170 158 174 94 197 347 39 348 45 102 97 91 89 86
205 213 178 182 217 235 257 262 221 211 250 255 260 270 290 275 274 263 271 275 248 226 62 63 43 48 76 165 178 222 262 273 246 254 226 244 230 274 274 322 0 22 6 76 53 39 35 27 57 35 23 40 51 66 45 21 1 59 19 55 355 6 40 15 349 318 332 2 26 350 335 130 147 138 158 114 92 349 10 80 88 100 113 109 97
189 201 199 216 210 198 222 249 246 227 265 269 278 322 311 290 279 266 344 316 288 300 24 82 32 326 307 281 237 243 216 248 253 249 240 226 194 225 236 266 270 227 240 60 66 75 57 35 42 71 50 41 79 67 69 28 332 27 65 178 50 41 34 34 324 349 27 293 12 8 17 83 92 78 139 152 141 150 16 47 60 61 103 103 99
190 195 206 208 216 219 231 251 267 335 10 318 211 297 323 315 306 334 12 354 331 327 284 25 67 326 278 264 280 254 233 248 252 246 227 208 199 282 233 231 214 187 198 127 114 105 91 77 86 85 74 54 85 82 83 85 66 61 18 7 25 1 8 12 64 342 3 310 357 356 29 45 41 51 115 87 136 135 114 142 112 45 50 59 92
241 246 239 229 224 224 229 257 313 311 307 297 346 16 9 16 21 352 326 325 319 336 335 285 85 106 350 261 251 277 271 286 270 262 261 271 225 252 248 243 194 198 176 119 112 99 87 90 101 102 129 123 101 115 111 82 74 51 336 86 28 20 346 4 349 309 334 328 20 173 71 33 44 46 108 97 59 44 156 169 155 144 124 34 76
199 222 248 252 270 237 339 232 282 315 310 339 346 353 346 29 22 359 302 290 293 288 286 282 281 270 259 255 260 270 276 260 272 268 260 262 238 243 244 236 191 200 151 177 143 112 101 103 101 81 125 126 121 127 137 125 97 94 22 62 41 8 359 341 356 327 338 15 15 104 182 176 178 183 193 180 147 132 108 124 96 92 124 114 71
149 167 288 356 347 335 6 290 314 308 323 326 324 335 334 325 346 333 312 311 302 284 284 272 270 275 263 250 254 257 251 263 260 253 251 239 227 232 242 248 250 210 133 164 122 117 124 102 130 89 346 16 42 214 205 139 121 99 63 61 37 330 359 38 30 316 341 18 2 344 247 213 189 183 192 169 163 168 146 146 130 116 94 82 116
129 133 160 303 276 289 296 287 309 301 276 285 289 298 300 307 306 310 296 292 291 296 291 280 272 266 260 274 292 290 307 304 298 291 281 267 268 262 258 237 225 215 205 170 207 178 124 128 88 75 317 270 228 247 187 156 125 104 103 78 67 35 309 24 324 273 301 319 280 293 269 288 253 261 139 148 120 123 135 134 164 135 130 128 133
40 43 155 210 248 269 270 274 265 266 268 271 277 282 284 287 297 303 289 293 293 298 288 282 271 269 3 22 354 331 308 316 358 346 324 304 306 299 289 268 241 215 192 193 198 192 183 178 180 193 214 267 232 225 127 198 136 128 116 77 66 264 314 79 287 305 312 279 251 265 282 278 277 205 146 138 144 135 152 155 151 94 128 135 154
36 4 285 279 252 227 230 242 248 249 255 269 273 275 277 281 285 287 292 294 297 289 287 282 272 63 40 186 201 221 237 270 246 210 206 231 246 280 278 264 253 241 199 201 179 171 185 178 179 173 187 197 202 145 169 130 83 76 98 113 256 172 101 105 333 62 26 326 331 208 233 266 254 194 155 175 169 168 161 165 142 127 127 150 143
27 39 17 344 290 284 280 262 260 260 260 272 277 275 282 274 281 279 279 287 298 303 296 292 293 117 221 75 325 312 306 286 282 283 274 260 262 251 275 274 251 275 331 179 190 171 172 194 185 184 190 204 106 140 149 117 114 90 57 77 333 58 30 71 47 324 48 15 341 314 195 244 264 231 178 172 186 177 167 160 157 149 150 152 109
45 47 55 2 332 297 265 268 282 291 291 276 271 276 275 289 295 293 294 306 323 303 296 300 303 14 47 54 305 298 295 292 324 318 291 274 248 242 241 259 36 78 95 298 279 219 180 185 192 197 209 185 167 160 144 166 156 119 117 59 301 290 227 105 137 281 194 47 46 339 234 267 301 320 149 158 165 150 166 164 171 167 161 142 153
348 156 208 236 269 279 288 301 290 273 282 287 292 288 284 287 287 294 298 296 274 282 294 298 305 344 100 164 234 228 243 256 229 251 268 277 267 266 270 342 107 174 182 200 225 218 198 169 172 201 212 181 161 164 168 167 136 139 172 160 210 106 31 27 200 179 284 79 43 42 15 246 225 193 239 182 164 164 157 165 159 131 151 157 158
2 356 7 20 13 349 267 268 302 326 313 313 319 319 315 308 300 285 286 287 292 283 269 288 300 299 189 188 216 239 247 246 227 251 266 264 266 261 257 176 163 202 204 203 219 209 194 192 171 186 200 206 176 174 176 175 164 140 184 123 102 84 67 1 314 165 257 92 48 64 58 299 152 186 197 198 185 157 159 143 147 154 150 136 146
35 28 18 4 350 333 328 17 19 347 309 316 327 335 344 347 348 347 337 334 332 332 324 324 318 315 302 246 233 240 255 266 238 232 273 276 264 245 239 205 199 198 217 227 224 224 205 188 198 201 216 219 190 191 173 182 159 149 167 151 153 115 93 17 342 288 253 125 113 79 77 211 145 150 164 223 207 206 159 148 155 162 161 156 147
43 39 33 32 22 3 353 22 322 325 329 344 354 351 348 4 11 6 11 2 2 353 351 346 342 339 334 321 304 294 288 290 288 268 255 253 256 254 247 230 203 198 202 213 221 238 227 195 193 198 213 236 205 186 190 167 170 158 180 170 153 100 103 291 24 329 6 219 112 125 253 196 140 126 198 210 216 204 163 156 147 139 140 160 147
60 54 51 38 32 24 24 23 356 341 332 330 328 345 353 5 11 18 22 16 0 352 349 337 340 333 337 330 326 312 299 302 299 297 293 289 277 263 255 241 224 216 200 209 216 226 234 219 193 201 216 222 192 191 184 152 159 178 197 210 173 143 132 151 98 9 294 6 140 150 213 319 120 128 248 235 196 198 178 160 174 157 160 174 173
57 52 41 42 37 37 39 25 13 0 328 317 320 348 16 23 22 20 28 10 3 351 342 343 347 348 345 341 335 335 329 321 318 311 306 299 290 271 255 248 245 238 217 210 219 224 234 232 220 210 212 216 190 189 187 158 159 168 190 216 198 174 169 192 103 310 282 171 119 99 346 342 17 66 15 323 230 209 183 177 183 173 165 175 176
45 39 38 33 33 33 28 23 21 3 353 343 323 343 13 28 25 20 20 2 357 355 350 352 352 351 351 351 351 345 346 340 328 311 300 289 284 280 261 258 257 244 230 227 222 224 243 242 235 232 219 204 183 184 183 176 174 171 176 192 197 183 196 155 171 213 89 102 141 101 35 51 78 79 16 360 2 204 195 193 181 190 165 170 167
49 46 40 32 29 24 17 15 11 10 10 3 338 324 346 16 26 17 5 358 356 350 357 352 354 356 357 1 355 351 350 346 341 335 324 317 304 291 266 253 255 251 243 232 229 221 237 248 238 232 219 186 183 179 178 181 181 176 161 174 187 201 205 193 194 181 156 147 120 120 135 96 89 92 35 4 324 335 203 176 183 184 178 169 148
60 55 43 37 25 18 17 12 6 5 10 15 358 341 350 1 3 356 359 359 352 355 1 354 352 357 354 358 356 357 355 344 338 333 328 321 315 306 292 277 255 256 264 268 251 230 228 244 249 244 230 192 182 181 177 176 178 176 155 164 180 184 190 190 204 183 148 148 131 137 140 110 93 105 120 262 311 333 164 173 176 194 173 137 141
68 64 52 40 31 23 18 14 14 17 17 16 11 0 5 6 347 354 343 344 343 358 355 358 349 350 352 350 351 351 347 345 341 332 326 326 324 315 298 287 282 268 262 256 251 243 245 252 268 272 253 210 186 184 180 172 173 162 152 154 157 170 156 131 126 126 130 132 130 136 138 117 111 141 146 142 102 67 95 147 181 168 162 141 149
58 50 48 45 34 29 26 20 16 16 21 23 19 19 15 9 358 349 340 347 344 351 356 352 347 347 344 341 340 336 341 339 338 338 336 330 325 322 312 290 282 272 265 261 266 275 276 253 257 263 263 242 198 184 180 174 169 164 159 178 178 170 163 116 104 113 127 124 132 140 136 133 131 146 144 157 148 122 103 91 325 168 159 150 156
42 35 34 34 31 23 25 28 27 23 23 20 19 17 16 18 10 356 345 354 345 349 344 342 341 345 333 331 336 340 340 341 337 338 340 339 337 331 319 304 289 277 266 264 315 334 319 304 281 264 268 261 211 192 182 175 167 165 164 176 190 170 178 126 115 110 118 122 128 138 136 157 140 120 105 98 102 125 136 103 14 161 155 148 148
43 38 35 33 32 27 25 32 32 34 28 23 19 18 17 18 11 3 5 350 355 355 354 350 344 333 336 351 348 349 351 352 349 337 329 331 332 332 330 323 303 285 280 275 252 249 253 267 278 279 304 295 253 213 191 179 169 168 170 177 179 172 175 136 139 133 119 129 142 144 159 130 108 103 93 92 88 84 82 97 140 122 128 130 146
45 44 43 41 37 32 29 26 21 26 27 24 18 18 15 13 5 5 3 350 1 4 1 3 356 348 346 346 355 350 359 2 349 346 333 327 327 328 326 325 321 309 297 291 255 245 260 245 253 297 332 331 300 245 192 175 172 169 166 169 176 181 167 147 158 156 157 156 143 136 126 121 115 105 94 87 92 89 82 79 75 82 109 136 137
46 43 41 38 34 31 29 24 18 13 14 13 3 6 22 8 0 1 350 3 15 9 3 357 359 353 356 351 348 348 357 351 349 342 334 326 322 325 325 323 321 321 312 309 288 243 254 271 235 162 124 306 296 278 200 179 174 175 168 170 170 170 161 164 167 167 159 154 159 154 149 131 133 137 125 103 89 90 90 81 75 73 74 68 87
48 44 39 30 27 25 26 23 25 21 17 8 9 16 6 355 4 357 5 14 11 9 4 4 353 2 1 352 357 359 356 352 346 338 331 329 329 327 325 323 320 314 313 313 310 309 285 278 269 239 191 144 261 339 259 186 178 175 174 163 171 162 160 166 170 170 165 162 163 159 162 175 176 153 130 123 119 106 91 86 78 73 64 65 62
51 47 39 24 18 19 25 30 24 20 20 12 19 14 1 2 2 359 11 9 10 2 3 357 0 355 356 359 354 356 356 349 344 342 340 331 329 327 319 309 307 317 317 310 314 315 329 286 238 215 203 173 75 32 252 249 184 177 173 167 167 168 166 165 174 175 172 170 168 164 166 180 213 153 136 135 129 110 89 75 64 56 52 45 48
54 44 35 26 12 11 20 22 19 18 19 21 14 360 356 10 2 3 0 3 3 5 5 357 345 346 350 349 350 360 354 350 346 343 340 336 330 325 327 323 311 308 313 312 312 320 316 296 276 259 240 198 157 190 184 235 246 179 175 164 165 165 170 175 174 178 177 175 173 170 172 174 177 170 174 156 143 129 106 90 76 57 50 32 39
68 62 39 31 18 11 6 6 5 22 22 22 13 0 3 357 3 8 358 359 2 8 10 1 1 347 344 346 349 352 356 354 350 344 343 340 335 329 326 322 315 314 315 314 311 314 312 308 294 290 280 253 277 182 177 197 269 265 176 163 162 166 174 182 172 184 181 181 173 169 170 167 173 176 184 164 152 135 115 104 94 82 55 32 25
64 68 53 36 33 26 7 16 22 23 25 16 11 11 4 360 11 8 4 0 6 17 6 3 4 357 349 341 341 351 359 353 348 349 348 344 342 333 328 330 322 316 319 326 317 312 308 308 300 281 273 274 227 221 172 190 207 257 279 178 169 165 166 170 184 185 185 177 175 172 166 167 166 172 168 152 157 135 117 115 112 99 74 58 22
58 45 42 35 28 28 22 29 22 19 11 8 15 15 8 7 5 4 11 7 16 8 0 3 1 355 352 350 350 353 358 353 350 350 346 343 340 338 336 333 326 316 316 319 318 312 313 309 309 309 285 275 238 227 208 187 194 195 215 257 196 172 171 169 173 183 176 177 181 177 167 163 164 172 153 155 158 138 128 131 125 115 107 104 89
69 64 49 43 36 42 35 25 21 14 347 3 18 14 15 9 8 4 11 16 6 1 359 358 353 353 354 352 353 356 356 353 348 344 346 343 340 332 330 336 341 338 315 316 322 318 312 313 310 303 304 300 270 234 214 202 200 200 198 212 222 189 170 175 164 179 192 172 186 179 167 166 168 170 155 160 158 145 143 148 141 126 131 158 211
45 33 37 54 47 41 27 20 11 349 350 13 12 13 15 12 6 8 20 10 355 339 342 358 1 359 356 354 354 356 352 349 342 339 343 340 333 342 346 346 348 349 340 330 337 332 320 311 315 315 311 310 299 282 217 218 209 205 200 194 190 191 186 180 177 171 176 206 175 171 175 173 169 164 162 154 155 155 150 151 131 134 145 197 203
58 37 29 47 50 54 38 19 5 2 9 4 9 21 18 11 10 19 15 354 337 343 2 10 5 1 357 352 351 351 346 341 343 337 337 339 344 343 344 355 357 357 2 358 355 347 332 322 322 321 305 322 302 286 271 208 223 223 206 192 197 205 195 177 177 177 172 173 183 182 183 181 169 167 163 152 140 154 152 151 157 155 188 172 140
53 46 42 44 44 29 28 20 10 6 3 9 21 31 26 24 25 18 359 348 355 358 6 10 5 356 353 351 350 347 347 345 342 346 343 341 340 344 350 358 5 6 3 0 355 349 343 337 337 332 324 295 284 290 284 260 229 226 218 212 210 215 202 177 171 178 174 176 181 182 188 188 176 169 166 157 147 143 153 151 185 189 155 131 152
35 29 24 60 48 32 34 22 7 9 11 15 33 42 37 33 28 7 357 2 1 0 2 3 359 353 349 348 348 347 347 345 345 344 346 344 346 353 355 3 8 5 359 358 354 353 351 347 347 342 337 330 322 309 275 266 254 230 218 208 224 259 349 278 185 180 187 190 186 186 191 178 177 171 168 162 153 148 148 177 196 181 160 159 144
39 62 44 60 55 39 36 23 18 17 21 27 46 51 40 35 17 351 356 1 0 356 359 1 357 351 350 350 349 348 348 348 347 348 350 354 357 358 357 3 2 2 357 355 356 353 350 352 348 338 338 337 330 315 287 261 247 234 222 221 218 211 323 340 278 208 190 184 176 186 187 179 176 170 167 161 157 150 159 171 183 183 170 154 140
56 47 45 59 63 49 40 31 22 27 35 44 46 49 41 30 359 354 359 1 360 1 5 2 357 355 356 352 351 351 351 350 349 352 354 354 0 1 356 354 356 359 359 355 349 349 349 341 342 342 332 332 331 320 307 285 262 251 227 215 214 204 198 269 0 336 190 188 195 186 173 171 174 169 164 155 152 152 148 153 163 163 153 144 146
50 45 45 54 51 50 46 37 29 35 48 49 47 44 41 11 355 2 0 0 2 5 6 4 1 3 359 357 355 353 351 350 349 353 353 356 1 356 354 348 352 354 356 356 349 348 345 343 339 338 334 326 325 326 315 305 289 272 245 224 210 204 201 208 248 293 358 287 204 170 167 169 163 155 147 156 155 158 154 149 149 147 142 149 145
70 59 64 47 51 47 39 35 41 37 50 48 46 41 32 11 9 360 359 0 9 9 5 6 10 6 4 1 359 355 351 348 350 351 354 357 356 356 353 351 351 352 354 353 352 349 345 345 341 334 330 327 327 335 332 321 305 292 266 211 191 201 190 204 236 291 6 52 127 149 152 161 151 149 131 128 133 134 132 140 148 142 144 146 148
88 72 66 59 55 56 41 42 50 51 50 46 40 32 20 14 9 3 0 6 14 8 6 10 13 8 6 0 358 353 352 349 350 352 352 349 352 352 352 352 349 352 352 349 348 346 346 343 335 329 325 332 338 340 345 344 328 301 264 201 186 189 195 189 191 199 128 58 73 98 111 109 113 105 100 99 109 137 154 153 164 162 154 147 143
69 53 61 65 59 52 47 56 63 59 55 44 36 24 17 16 11 7 5 11 11 6 7 14 13 8 5 0 356 352 348 347 348 347 345 343 342 340 339 337 343 352 350 347 341 336 339 333 327 330 331 335 341 342 336 323 312 293 253 206 188 196 193 201 191 147 114 99 91 95 95 101 125 142 142 147 151 151 188 193 179 189 172 146 131
92 73 57 52 51 62 60 69 65 56 49 41 30 22 16 17 13 12 11 16 10 8 8 10 11 8 2 356 353 349 348 347 349 346 342 336 337 337 335 341 342 344 346 343 350 331 318 319 323 326 320 307 311 304 301 326 345 334 272 224 218 193 181 173 158 154 138 134 150 143 157 163 168 163 166 169 175 176 181 200 220 210 193 182 169
69 62 45 49 43 57 71 70 61 52 46 36 29 18 18 15 15 13 16 17 13 11 6 5 6 9 358 352 348 346 346 348 347 346 344 344 337 338 348 359 351 344 341 337 338 337 338 344 347 331 327 316 301 322 345 346 348 346 333 290 292 186 158 152 143 135 140 158 160 164 183 193 168 174 177 183 178 176 187 190 202 203 204 199 195